Weather in Sozonovo

Russia / Nizhny Novgorod Oblast'     55°47′20″N   43°15′48″E
temp.,
°C
wind,
m/s
gust,
m/s
humid.,
%
clouds,
%
prec.,
mm/h
press.,
hPa
HPBL,
m
13 may, thu
thu1300:00+12ese398288 0.0 1022179
03:00+11ese36935 0.0 1022124
06:00+13se26912 0.0 1022195
09:00+19ese476943 0.0 1021774
12:00+22se61154100 0.0 10181739
15:00+18ese71283100 0.7 1018965
18:00+17se51087100 1.4 1017526
21:00+14s2596100 1.7 101794
14 may, fri
fri1400:00+13ssw2397100 0.0 101857
03:00+12s22970 0.0 101923
06:00+14s239366 0.0 1019110
09:00+18sse3478100 0.0 1019510
12:00+22sse35555 0.0 10191373
15:00+24s465134 0.0 10181841
18:00+22sse25665 0.0 1016235
21:00+17se3889100 0.0 1016134
15 may, sat
sat1500:00+16se2494100 3.1 101684
03:00+15se369645 3.8 1015117
06:00+17sse3990100 0.0 1014235
09:00+21sse5970100 0.0 1013510
12:00+24s7115349 0.0 10131061
15:00+25s711545 0.0 10121427
18:00+23s51064100 0.1 1013857
21:00+16ssw2292100 0.4 101326
16 may, sun
sun1600:00+15ssw229298 0.0 101315
03:00+14s239524 0.0 101252
06:00+16ssw2590100 0.0 1013158
09:00+20sw367155 0.0 1013776
12:00+22sw5754100 0.0 10131656
15:00+23sw58490 0.0 10131993
18:00+21wsw48620 0.0 1013798
21:00+15sw368594 0.0 1015110
17 may, mon
mon1700:00+14w228690 0.0 101626
03:00+12nw119011 0.0 101710
06:00+15e018129 0.0 101769
09:00+20ne21625 0.0 1017547
12:00+24ene22539 0.0 10161010
15:00+26e23495 0.0 10161443
18:00+24e36686 0.0 1016301
21:00+18e399154 1.8 1016164